FW6498 Weather Reports


time (UTC)temp
F
wind
direction
speed
knots
gust
knots
rain 1hr
in
rain 24hr
in
rain mn
in
humidity
%
barometer
mb
20260505224003 63 162 1.7 11.3 0.00 0.00 0.00 63 1007.7
20260505223502 63 155 1.7 12.2 0.00 0.00 0.00 62 1007.7
20260505223003 63 153 1.7 12.2 0.00 0.00 0.00 62 1007.7
20260505222502 63 164 1.7 12.2 0.00 0.00 0.00 61 1007.8
20260505222002 64 169 2.6 14.8 0.00 0.00 0.00 61 1007.9
20260505221502 64 172 2.6 14.8 0.00 0.00 0.00 61 1007.8
20260505221002 64 167 0.9 11.3 0.00 0.00 0.00 61 1007.7
20260505220003 64 178 0.9 14.8 0.00 0.00 0.00 60 1007.9
20260505215501 64 167 1.7 14.8 0.00 0.00 0.00 59 1007.9
20260505215002 64 155 0.9 10.4 0.00 0.00 0.00 59 1007.9
20260505214501 64 155 1.7 13.9 0.00 0.00 0.00 59 1007.7
20260505213002 65 166 2.6 12.2 0.00 0.00 0.00 58 1007.8
20260505212501 65 154 1.7 14.8 0.00 0.00 0.00 58 1007.8
20260505212003 65 152 1.7 14.8 0.00 0.00 0.00 58 1007.8
20260505211503 65 152 2.6 17.4 0.00 0.00 0.00 57 1007.8
20260505211004 65 162 2.6 17.4 0.00 0.00 0.00 58 1007.7
20260505210502 65 164 3.5 15.6 0.00 0.00 0.00 58 1007.7
20260505210003 65 153 5.2 20.9 0.00 0.00 0.00 58 1007.9
20260505205501 65 155 6.1 20.9 0.00 0.00 0.00 57 1007.8
20260505205003 65 158 4.3 18.2 0.00 0.00 0.00 57 1007.7
20260505204503 65 156 1.7 16.5 0.00 0.00 0.00 57 1007.8
20260505204002 65 163 2.6 12.2 0.00 0.00 0.00 56 1007.8
20260505203004 66 168 2.6 11.3 0.00 0.00 0.00 56 1007.8
20260505202003 66 165 4.3 14.8 0.00 0.00 0.00 55 1007.9
20260505201502 66 156 3.5 13.9 0.00 0.00 0.00 54 1007.9
20260505201003 66 150 2.6 14.8 0.00 0.00 0.00 54 1007.9
20260505200504 66 153 2.6 14.8 0.00 0.00 0.00 54 1007.8
20260505195501 66 177 2.6 13.0 0.00 0.00 0.00 54 1007.9
20260505195003 66 182 3.5 15.6 0.00 0.00 0.00 53 1007.8
20260505194502 67 185 3.5 15.6 0.00 0.00 0.00 53 1007.9
20260505194003 67 176 3.5 15.6 0.00 0.00 0.00 53 1007.9
20260505193502 67 172 3.5 15.6 0.00 0.00 0.00 52 1008.1
20260505193003 67 185 3.5 22.6 0.00 0.00 0.00 51 1008.0
20260505192502 67 191 3.5 22.6 0.00 0.00 0.00 51 1007.9
20260505192003 67 184 1.7 14.8 0.00 0.00 0.00 50 1008.0
20260505191502 67 160 1.7 13.9 0.00 0.00 0.00 50 1007.9
20260505191002 68 152 3.5 17.4 0.00 0.00 0.00 50 1007.9
20260505190502 68 158 3.5 17.4 0.00 0.00 0.00 49 1007.8
20260505190002 68 167 1.7 13.9 0.00 0.00 0.00 49 1007.8
20260505185004 68 174 1.7 9.6 0.00 0.00 0.00 49 1007.7
20260505184004 69 170 4.3 14.8 0.00 0.00 0.00 48 1007.7
20260505183501 69 174 2.6 14.8 0.00 0.00 0.00 48 1007.7
20260505183004 69 158 0.9 9.6 0.00 0.00 0.00 49 1007.5
20260505182502 69 168 2.6 16.5 0.00 0.00 0.00 48 1007.6
20260505182004 69 177 4.3 16.5 0.00 0.00 0.00 47 1007.5
20260505181502 69 181 4.3 14.8 0.00 0.00 0.00 47 1007.6
20260505181003 69 183 5.2 19.1 0.00 0.00 0.00 47 1007.5
20260505180502 69 184 6.1 19.1 0.00 0.00 0.00 47 1007.7
20260505180004 70 175 7.0 17.4 0.00 0.00 0.00 47 1007.6
20260505175502 70 174 7.8 20.9 0.00 0.00 0.00 47 1007.6
20260505175003 70 175 8.7 20.9 0.00 0.00 0.00 46 1007.7
20260505173503 71 185 4.3 16.5 0.00 0.00 0.00 47 1007.8
20260505172502 71 193 3.5 15.6 0.00 0.00 0.00 46 1007.6
20260505172003 71 197 5.2 16.5 0.00 0.00 0.00 45 1007.6
20260505171502 72 198 7.8 16.5 0.00 0.00 0.00 44 1007.8
20260505171002 73 198 7.0 19.1 0.00 0.00 0.00 44 1007.7
20260505170502 74 186 7.0 19.1 0.00 0.00 0.00 43 1007.6
20260505170004 74 175 8.7 20.0 0.00 0.00 0.00 43 1007.6
20260505165502 74 178 7.0 20.0 0.00 0.00 0.00 42 1007.5
20260505165003 74 186 5.2 17.4 0.00 0.00 0.00 43 1007.5
20260505164502 74 198 5.2 17.4 0.00 0.00 0.00 43 1007.6
20260505164003 74 195 6.1 18.2 0.00 0.00 0.00 42 1007.4
20260505163502 75 194 7.8 24.3 0.00 0.00 0.00 41 1007.4
20260505163004 76 196 10.4 26.9 0.00 0.00 0.00 41 1007.6
20260505162003 77 190 9.6 26.9 0.00 0.00 0.00 41 1007.4
20260505161503 78 187 8.7 26.9 0.00 0.00 0.00 40 1007.5
20260505161004 78 189 7.8 22.6 0.00 0.00 0.00 41 1007.2
20260505153003 79 185 7.0 27.8 0.00 0.00 0.00 38 1007.4
20260505152502 79 189 8.7 20.0 0.00 0.00 0.00 37 1007.4
20260505152003 79 169 7.8 20.9 0.00 0.00 0.00 38 1007.4
20260505151003 79 161 10.4 23.5 0.00 0.00 0.00 38 1007.3
20260505150502 79 156 8.7 23.5 0.00 0.00 0.00 37 1007.6
20260505140502 80 160 5.2 22.6 0.00 0.00 0.00 37 1007.9
20260505125003 80 192 9.6 23.5 0.00 0.00 0.00 28 1008.4
20260505124503 81 183 7.0 21.7 0.00 0.00 0.00 29 1008.5
20260505124003 80 183 4.3 18.2 0.00 0.00 0.00 31 1008.6
20260505122502 79 173 6.1 22.6 0.00 0.00 0.00 27 1008.6
20260505122004 79 174 5.2 17.4 0.00 0.00 0.00 30 1008.7
20260505121502 78 186 5.2 17.4 0.00 0.00 0.00 32 1008.8
20260505121003 78 179 5.2 14.8 0.00 0.00 0.00 33 1008.9
20260505120502 77 162 6.1 17.4 0.00 0.00 0.00 33 1009.2
20260505120004 77 165 6.1 18.2 0.00 0.00 0.00 32 1009.3
20260505115502 77 173 5.2 18.2 0.00 0.00 0.00 31 1009.1
20260505115003 77 172 5.2 20.0 0.00 0.00 0.00 31 1009.2
20260505114502 77 161 5.2 20.0 0.00 0.00 0.00 31 1009.1
20260505114003 77 151 3.5 20.0 0.00 0.00 0.00 32 1009.1
20260505113503 77 184 3.5 15.6 0.00 0.00 0.00 34 1009.1
20260505113003 77 186 7.0 15.6 0.00 0.00 0.00 33 1009.1
20260505112502 78 185 7.0 18.2 0.00 0.00 0.00 31 1009.2
20260505112003 78 183 2.6 18.2 0.00 0.00 0.00 31 1009.3
20260505111502 78 166 0.9 11.3 0.00 0.00 0.00 35 1009.4
20260505111003 78 159 2.6 11.3 0.00 0.00 0.00 34 1009.3
20260505110503 77 157 1.7 9.6 0.00 0.00 0.00 34 1009.3
20260505102003 77 171 4.3 15.6 0.00 0.00 0.00 33 1009.9
20260505101502 77 173 4.3 15.6 0.00 0.00 0.00 34 1009.8
20260505101003 76 171 5.2 20.9 0.00 0.00 0.00 36 1010.1
20260505100502 76 170 4.3 20.9 0.00 0.00 0.00 37 1010.0
20260505100003 76 176 2.6 14.8 0.00 0.00 0.00 37 1010.0
20260505095502 75 175 3.5 14.8 0.00 0.00 0.00 38 1010.0
20260505095003 75 188 3.5 13.9 0.00 0.00 0.00 38 1010.0
20260505094502 75 192 3.5 13.9 0.00 0.00 0.00 37 1010.1
20260505094003 75 181 1.7 10.4 0.00 0.00 0.00 38 1010.2
20260505093503 74 165 0.9 9.6 0.00 0.00 0.00 38 1010.1
20260505093004 74 161 1.7 13.0 0.00 0.00 0.00 38 1010.2
20260505092503 74 168 1.7 13.0 0.00 0.00 0.00 38 1010.2
20260505092003 74 158 1.7 13.9 0.00 0.00 0.00 38 1010.3
20260505091503 73 152 1.7 13.9 0.00 0.00 0.00 38 1010.3
20260505091003 73 182 2.6 12.2 0.00 0.00 0.00 39 1010.4
20260505090503 72 194 3.5 14.8 0.00 0.00 0.00 40 1010.4
20260505090003 72 194 3.5 14.8 0.00 0.00 0.00 39 1010.4
20260505085502 72 192 3.5 15.6 0.00 0.00 0.00 39 1010.4
20260505085003 72 184 2.6 15.6 0.00 0.00 0.00 38 1010.5
20260505084502 72 178 2.6 13.9 0.00 0.00 0.00 39 1010.5
20260505084003 72 184 3.5 17.4 0.00 0.00 0.00 39 1010.5
20260505083503 71 190 4.3 17.4 0.00 0.00 0.00 41 1010.5
20260505083004 71 194 5.2 17.4 0.00 0.00 0.00 39 1010.5
20260505082003 70 184 3.5 14.8 0.00 0.00 0.00 41 1010.6
20260505081502 70 176 4.3 13.9 0.00 0.00 0.00 41 1010.6
20260505081003 70 176 4.3 14.8 0.00 0.00 0.00 41 1010.7
20260505080503 69 175 2.6 14.8 0.00 0.00 0.00 41 1010.7
20260505080005 69 178 3.5 15.6 0.00 0.00 0.00 42 1010.6
20260505075502 69 189 5.2 15.6 0.00 0.00 0.00 43 1010.7
20260505075003 68 194 4.3 14.8 0.00 0.00 0.00 44 1010.7
20260505074503 68 190 2.6 14.8 0.00 0.00 0.00 45 1010.8
20260505073502 68 189 3.5 13.0 0.00 0.00 0.00 45 1010.7
20260505073003 68 188 3.5 15.6 0.00 0.00 0.00 46 1010.7
20260505072503 67 189 3.5 15.6 0.00 0.00 0.00 45 1010.9
20260505071503 67 190 2.6 12.2 0.00 0.00 0.00 46 1011.0
20260505071004 67 193 2.6 13.0 0.00 0.00 0.00 47 1011.0
20260505070503 67 192 4.3 13.0 0.00 0.00 0.00 47 1011.0
20260505070004 67 191 4.3 13.0 0.00 0.00 0.00 46 1011.1
20260505064503 66 197 2.6 15.6 0.00 0.00 0.00 48 1011.0
20260505063004 65 189 0.9 8.7 0.00 0.00 0.00 49 1011.2
20260505062003 63 201 0.9 12.2 0.00 0.00 0.00 53 1011.2
20260505061502 61 195 0.0 4.3 0.00 0.00 0.00 57 1011.3
20260505061004 59 0 0.0 0.0 0.00 0.00 0.00 63 1011.2
20260505060004 58 0 0.0 0.0 0.00 0.00 0.00 64 1011.3
20260505055503 58 0 0.0 0.0 0.00 0.00 0.00 66 1011.3
20260505055004 57 0 0.0 0.0 0.00 0.00 0.00 66 1011.3
20260505054003 56 0 0.0 0.0 0.00 0.00 0.00 64 1011.2
20260505053502 56 0 0.0 0.0 0.00 0.00 0.00 62 1011.1
20260505052003 54 0 0.0 0.0 0.00 0.00 0.00 66 1011.1
20260505051503 54 0 0.0 0.0 0.00 0.00 0.00 67 1011.2
20260505051004 54 0 0.0 0.0 0.00 0.00 0.00 67 1011.4
20260505050502 53 0 0.0 0.0 0.00 0.00 0.00 67 1011.4
20260505041502 51 14 0.0 0.9 0.00 0.00 0.00 67 1011.3
20260505041004 51 14 0.0 0.9 0.00 0.00 0.00 68 1011.4
20260505040503 51 0 0.0 0.0 0.00 0.00 0.00 67 1011.3
20260505035503 51 0 0.0 0.0 0.00 0.00 0.00 67 1011.5
20260505035005 51 0 0.0 0.0 0.00 0.00 0.00 67 1011.5
20260505034003 51 0 0.0 0.0 0.00 0.00 0.00 67 1011.4
20260505033003 51 12 0.0 2.6 0.00 0.00 0.00 67 1011.5
20260505032502 51 12 0.0 2.6 0.00 0.00 0.00 67 1011.4
20260505032005 51 0 0.0 0.0 0.00 0.00 0.00 67 1011.5
20260505031005 51 352 0.0 3.5 0.00 0.00 0.00 67 1011.5
20260505030502 51 7 0.0 1.7 0.00 0.00 0.00 67 1011.5
20260505030004 51 0 0.0 0.0 0.00 0.00 0.00 68 1011.5
20260505025503 51 0 0.0 0.0 0.00 0.00 0.00 70 1011.6
20260505025003 51 0 0.0 0.0 0.00 0.00 0.00 67 1011.6
20260505024503 51 0 0.0 0.0 0.00 0.00 0.00 66 1011.7
20260505024004 51 0 0.0 0.0 0.00 0.00 0.00 66 1011.7
20260505023502 51 0 0.0 0.0 0.00 0.00 0.00 66 1011.7
20260505022503 51 0 0.0 0.0 0.00 0.00 0.00 65 1011.9
20260505022004 52 0 0.0 0.0 0.00 0.00 0.00 65 1011.9
20260505021004 51 0 0.0 0.0 0.00 0.00 0.00 65 1011.9
20260505020503 51 26 0.0 1.7 0.00 0.00 0.00 65 1011.8
20260505020003 51 26 0.0 1.7 0.00 0.00 0.00 66 1012.0
20260505015503 51 0 0.0 0.0 0.00 0.00 0.00 66 1011.9
20260505015004 51 0 0.0 0.0 0.00 0.00 0.00 66 1011.8
20260505014502 51 0 0.0 0.0 0.00 0.00 0.00 67 1011.9
20260505014004 51 0 0.0 0.0 0.00 0.00 0.00 66 1011.9
20260505013502 51 0 0.0 0.0 0.00 0.00 0.00 66 1012.0
20260505013004 52 0 0.0 0.0 0.00 0.00 0.00 66 1012.0
20260505012502 52 0 0.0 0.0 0.00 0.00 0.00 66 1012.0
20260505012004 52 0 0.0 0.0 0.00 0.00 0.00 66 1012.0
20260505011503 52 0 0.0 0.0 0.00 0.00 0.00 66 1012.1
20260505011003 52 0 0.0 0.0 0.00 0.00 0.00 66 1012.2
20260505010004 52 0 0.0 0.0 0.00 0.00 0.00 65 1012.3
20260505005503 52 0 0.0 0.0 0.00 0.00 0.00 65 1012.3
20260505005004 52 0 0.0 0.0 0.00 0.00 0.00 65 1012.3
20260505004502 52 0 0.0 0.0 0.00 0.00 0.00 65 1012.4
20260505004004 52 0 0.0 0.0 0.00 0.00 0.00 65 1012.4
20260505003504 53 0 0.0 0.0 0.00 0.00 0.00 64 1012.5
20260505003003 53 0 0.0 0.0 0.00 0.00 0.00 65 1012.5
20260505002503 53 0 0.0 0.0 0.00 0.00 0.00 64 1012.5
20260505002003 53 0 0.0 0.0 0.00 0.00 0.00 64 1012.7
20260505001502 53 0 0.0 0.0 0.00 0.00 0.00 64 1012.8
20260505001003 53 0 0.0 0.0 0.00 0.00 0.00 63 1012.8
20260505000503 53 0 0.0 0.0 0.00 0.00 0.00 63 1012.7
20260504234502 53 0 0.0 0.0 0.00 0.00 0.00 63 1012.9
20260504233503 53 0 0.0 0.0 0.00 0.00 0.00 63 1012.8
20260504232504 54 0 0.0 0.0 0.00 0.00 0.00 62 1012.8
20260504232003 54 0 0.0 0.0 0.00 0.00 0.00 62 1013.0
20260504231503 54 0 0.0 0.0 0.00 0.00 0.00 62 1013.0
20260504231004 54 0 0.0 0.0 0.00 0.00 0.00 62 1013.1
20260504230503 54 0 0.0 0.0 0.00 0.00 0.00 62 1013.1
20260504230003 54 0 0.0 0.0 0.00 0.00 0.00 62 1013.1
20260504225503 54 0 0.0 0.0 0.00 0.00 0.00 61 1013.2
20260504224503 54 0 0.0 0.0 0.00 0.00 0.00 60 1013.3